Location: S�tio Afonso Gruber
(26.1760°S, 49.5250°W)
Time: 23:03:20
(UTC+00:00)

Intelsat 5-3 Rocket - Pass Details

Date: 01 October 2020
Orbit: 281 x 6111 km, 23.6° (Epoch: 22 October)

Event Time Altitude Azimuth Distance (km) Brightness Sun altitude
Enters shadow 01:09:24 - 299° (WNW) 3,958 6.9 -48.9°
Exits shadow 01:42:12 16° 96° (E) 7,539 7.8 -54.0°
Drops below altitude 10° 01:47:18 10° 97° (E) 8,605 8.1 -54.7°
Sets 01:56:35 0° 99° (E) 10,304 8.6 -55.8°
